This is the latest recevied weather packets stored in our database for station/object SPDRWX. If no packets are shown the sender has not sent any weather packets the latest 10 day(s).
| Time | Temp. | Humidity | Pressure | Rain* | Wind** | Luminosity | Snow |
|---|---|---|---|---|---|---|---|
| 1777836312 | 13.33° C | 39% | 1009.3 hPa | 0 mm | - | - | - |
| 1777835853 | 13.33° C | 38% | 1009.4 hPa | 0 mm | - | - | - |
| 1777835663 | 13.33° C | 38% | 1009.3 hPa | 0 mm | - | - | - |
| 1777832173 | 13.33° C | 33% | 1009.4 hPa | 1.27 mm | - | - | - |
| 1777831546 | 12.78° C | 34% | 1009.6 hPa | 1.27 mm | - | - | - |
| 1777831065 | 12.78° C | 34% | 1009.6 hPa | 1.27 mm | - | - | - |
| 1777830447 | 12.22° C | 35% | 1009.7 hPa | 1.27 mm | - | - | - |
| 1777826682 | 11.11° C | 39% | 1009.7 hPa | 1.27 mm | - | - | - |
| 1777826577 | 11.11° C | 39% | 1009.8 hPa | 1.27 mm | - | - | - |
| 1777826350 | 11.11° C | 39% | 1009.7 hPa | 1.27 mm | - | - | - |
| 1777825794 | 10.56° C | 40% | 1009.7 hPa | 1.27 mm | - | - | - |
| 1777825548 | 10.56° C | 40% | 1009.5 hPa | 1.27 mm | - | - | - |
| 1777825328 | 10.56° C | 40% | 1009.8 hPa | 1.27 mm | - | - | - |
| 1777825094 | 10.56° C | 41% | 1009.7 hPa | 1.27 mm | - | - | - |
| 1777824974 | 10.56° C | 41% | 1009.7 hPa | 1.27 mm | - | - | - |
| 1777824796 | 10.56° C | 41% | 1009.7 hPa | 1.27 mm | - | - | - |
| 1777824424 | 10.56° C | 41% | 1009.9 hPa | 1.27 mm | - | - | - |
| 1777824255 | 10° C | 42% | 1009.7 hPa | 1.27 mm | - | - | - |
| 1777823950 | 10° C | 42% | 1010 hPa | 1.27 mm | - | - | - |
| 1777823819 | 10° C | 42% | 1009.8 hPa | 1.27 mm | - | - | - |
| 1777823556 | 10° C | 43% | 1009.9 hPa | 1.27 mm | - | - | - |
| 1777823229 | 10° C | 43% | 1009.9 hPa | 1.27 mm | - | - | - |
| 1777823101 | 10° C | 43% | 1009.8 hPa | 1.27 mm | - | - | - |
| 1777822911 | 10° C | 43% | 1009.9 hPa | 1.27 mm | - | - | - |
| 1777822659 | 10° C | 44% | 1009.8 hPa | 1.27 mm | - | - | - |
* Rain since midnight (hover to see other rain measurements)
** Current wind speed in m/s (hover to see current wind gust speed)